ARABSAT-5C

Last updated on Oct. 1, 2020, 5:42 a.m. UTC

1 37810U 11049B   20274.79272187  .00000109  00000-0  00000-0 0  9992
2 37810   0.0622  12.3738 0005253 175.4222 127.5646  1.00272681 33142
UTC
Height (km)
Latitude
Longitude
Inclination
Orbital Period
UTC large
Height (km)
Speed (km/s)
/
Latitude / Longitude
Inclination (degrees)
Orbital Period (minutes)
Azimuth
Elevation
Range (km)
Doppler Factor
iOS Compass Heading
iOS Angle

Next 30 passes for location: Hong Kong

Rise time Rise Azimuth (degrees) Set time Set Azimuth (degrees) Duration Max altitude (degrees)

No matching passes for this satellites